Latest Coastal Weather Observations for Browse Island

IDW60701

Issued at 5:12 pm WST Saturday 28 March 2015 (issued every 10 minutes, with the page automatically refreshed every 10 minutes)

About coastal observations | Map of coastal stations | Coastal observations for WA | Marine services | Other Formats
Station Details ID: 200784 Name: BROWSE ISLAND Lat: -14.11 Lon: 123.55 Height: 3.7 m
Data from the previous 72 hours. | See also: Recent months for locations in Western Australia
Date/Time
WST
Temp

°C
Wind Pressure Rain
since 9am
mm
Weather Cloud Vis
km
Sea
Height
m
Swell
Dir
 
Speed
knots
Gust
knots
hPa Trend Height
m
Period
s
Dir
28/05:00pm 28.1 NNE 21 22 1008.9 - - - - - - - - -
28/04:30pm 28.0 NNE 21 26 1008.0 - - - - - - - - -
28/04:00pm 27.6 N 22 27 1008.5 - - - - - - - - -
28/03:30pm 27.0 NNE 22 25 1008.0 - - - - - - - - -
28/03:00pm 26.9 N 23 27 1008.5 - - - - - - - - -
28/02:30pm 27.0 N 21 22 1008.0 - - - - - - - - -
28/02:00pm 26.1 N 28 35 1008.8 - - - - - - - - -
28/01:56pm 27.0 N 26 36 1008.0 - - - - - - - - -
28/01:30pm 27.0 N 25 28 1009.0 - - - - - - - - -
28/01:00pm 26.5 N 23 26 1009.7 - - - - - - - - -
28/12:30pm 26.0 NNE 22 27 1009.0 - - - - - - - - -
28/12:00pm 26.4 NNE 23 27 1010.2 - - - - - - - - -
28/11:30am 26.0 NNE 18 20 1011.0 - - - - - - - - -
28/11:00am 26.4 NNE 21 24 1011.2 - - - - - - - - -
28/10:30am 25.0 NNE 17 17 1012.0 - - - - - - - - -
28/10:18am 26.0 N 15 17 1012.0 - - - - - - - - -
28/10:00am 25.1 ENE 24 29 1012.0 - - - - - - - - -
28/09:30am 26.0 E 21 25 1011.0 - - - - - - - - -
28/09:27am 26.0 E 20 20 1011.0 - - - - - - - - -
28/09:00am 26.7 NE 13 13 1011.1 - - - - - - - - -
28/08:30am 27.0 N 16 24 1010.0 - - - - - - - - -
28/08:00am 26.1 N 20 21 1010.3 - - - - - - - - -
28/07:30am 29.0 N 14 - 1010.0 - - - - - - - - -
28/07:00am 28.9 N 16 - 1009.7 - - - - - - - - -
28/06:30am 28.0 N 18 - 1009.0 - - - - - - - - -
28/06:00am 28.5 N 17 - 1008.8 - - - - - - - - -
28/05:30am 29.0 NNW 15 - 1008.0 - - - - - - - - -
28/05:00am 28.2 N 16 - 1008.2 - - - - - - - - -
28/04:30am 28.0 N 15 - 1008.0 - - - - - - - - -
28/04:00am 27.9 N 15 - 1007.1 - - - - - - - - -
28/03:53am 28.0 N 15 - 1007.0 - - - - - - - - -
28/03:30am 27.0 ENE 4 - 1008.0 - - - - - - - - -
28/03:00am 26.9 ESE 12 - 1008.5 - - - - - - - - -
28/02:30am 27.0 SE 13 - 1008.0 - - - - - - - - -
28/02:00am 27.5 E 11 - 1008.3 - - - - - - - - -
28/01:30am 27.0 ESE 12 - 1009.0 - - - - - - - - -
28/01:00am 27.6 ESE 16 - 1008.9 - - - - - - - - -
28/12:30am 28.0 E 17 - 1009.0 - - - - - - - - -
28/12:00am 28.1 E 19 21 1010.1 - - - - - - - - -
 
Date/Time
WST
Temp

°C
Wind Pressure Rain
since 9am
mm
Weather Cloud Vis
km
Sea
Height
m
Swell
Dir
 
Speed
knots
Gust
knots
hPa Trend Height
m
Period
s
Dir
27/11:30pm 28.0 E 20 - 1010.0 - - - - - - - - -
27/11:00pm 28.4 E 17 - 1010.8 - - - - - - - - -
27/10:30pm 28.0 E 19 - 1010.0 - - - - - - - - -
27/10:00pm 28.1 E 20 - 1011.0 - - - - - - - - -
27/09:30pm 28.0 E 22 - 1011.0 - - - - - - - - -
27/09:00pm 28.4 E 21 - 1010.9 - - - - - - - - -
27/08:30pm 28.0 E 19 - 1011.0 - - - - - - - - -
27/08:00pm 28.2 E 18 - 1010.8 - - - - - - - - -
27/07:30pm 28.0 E 14 - 1010.0 - - - - - - - - -
27/07:00pm 29.0 E 14 - 1010.3 - - - - - - - - -
27/06:30pm 29.0 E 12 - 1010.0 - - - - - - - - -
27/06:00pm 28.3 E 14 - 1009.9 - - - - - - - - -
27/05:30pm 29.0 E 13 - 1009.0 - - - - - - - - -
27/05:00pm 28.6 E 14 - 1009.1 - - - - - - - - -
27/04:30pm 29.0 E 14 - 1008.0 - - - - - - - - -
27/04:00pm 29.0 E 13 - 1008.5 - - - - - - - - -
27/03:30pm 29.0 E 12 - 1008.0 - - - - - - - - -
27/03:00pm 28.5 E 15 - 1008.8 - - - - - - - - -
27/02:30pm 30.0 ESE 11 - 1009.0 - - - - - - - - -
27/02:00pm 29.9 E 11 - 1009.1 - - - - - - - - -
27/01:30pm 29.0 ESE 11 - 1009.0 - - - - - - - - -
27/01:00pm 29.4 E 10 - 1009.7 - - - - - - - - -
27/12:30pm 29.0 E 11 - 1010.0 - - - - - - - - -
27/12:00pm 29.2 E 12 - 1010.7 - - - - - - - - -
27/11:30am 29.0 ESE 13 - 1011.0 - - - - - - - - -
27/11:00am 28.6 ESE 14 - 1011.6 - - - - - - - - -
27/10:30am 27.0 SSE 6 - 1012.0 - - - - - - - - -
27/10:00am 27.0 S 7 - 1012.3 - - - - - - - - -
27/09:30am 26.0 S 6 - 1012.0 - - - - - - - - -
27/09:00am 25.7 SSE 15 - 1012.7 - - - - - - - - -
27/08:32am 27.0 S 18 28 1012.0 - - - - - - - - -
27/08:30am 27.0 S 17 - 1012.0 - - - - - - - - -
27/08:28am 28.0 S 15 - 1012.0 - - - - - - - - -
27/08:00am 27.6 SSW 9 - 1012.1 - - - - - - - - -
27/07:30am 28.0 SW 13 - 1012.0 - - - - - - - - -
27/07:00am 28.1 SSW 9 - 1011.9 - - - - - - - - -
27/06:30am 28.0 SSW 5 - 1011.0 - - - - - - - - -
27/06:00am 27.5 S 6 - 1011.4 - - - - - - - - -
27/05:30am 27.0 SSW 8 - 1011.0 - - - - - - - - -
27/05:00am 26.9 SSW 8 - 1011.0 - - - - - - - - -
27/04:30am 26.0 SW 11 - 1011.0 - - - - - - - - -
27/04:00am 24.8 SSW 15 - 1011.0 - - - - - - - - -
27/03:46am 25.0 S 15 - 1011.0 - - - - - - - - -
27/03:30am 25.0 SSE 23 - 1011.0 - - - - - - - - -
27/03:15am 25.0 SE 25 - 1011.0 - - - - - - - - -
27/03:00am 26.0 ESE 28 - 1010.9 - - - - - - - - -
27/02:46am 27.0 E 19 29 1011.0 - - - - - - - - -
27/02:43am 27.0 E 19 - 1011.0 - - - - - - - - -
27/02:30am 29.0 SSW 7 - 1011.0 - - - - - - - - -
27/02:00am 29.4 SSW 7 - 1011.2 - - - - - - - - -
27/01:30am 29.0 SSW 8 - 1011.0 - - - - - - - - -
27/01:00am 29.7 SSW 9 - 1011.6 - - - - - - - - -
27/12:30am 30.0 SSW 9 - 1011.0 - - - - - - - - -
27/12:00am 29.5 SSW 7 - 1011.7 - - - - - - - - -
 
Date/Time
WST
Temp

°C
Wind Pressure Rain
since 9am
mm
Weather Cloud Vis
km
Sea
Height
m
Swell
Dir
 
Speed
knots
Gust
knots
hPa Trend Height
m
Period
s
Dir
26/11:30pm 30.0 SSW 6 - 1012.0 - - - - - - - - -
26/11:00pm 29.6 S 5 - 1011.9 - - - - - - - - -
26/10:30pm 30.0 SSE 5 - 1012.0 - - - - - - - - -
26/10:00pm 29.5 SSE 5 - 1012.0 - - - - - - - - -
26/09:30pm 30.0 SSE 6 - 1012.0 - - - - - - - - -
26/09:00pm 29.7 S 8 - 1012.0 - - - - - - - - -
26/08:30pm 30.0 S 7 - 1012.0 - - - - - - - - -
26/08:00pm 29.7 SSW 10 - 1012.1 - - - - - - - - -
26/07:30pm 30.0 S 7 - 1011.0 - - - - - - - - -
26/07:00pm 29.8 SSW 9 - 1011.5 - - - - - - - - -
26/06:30pm 30.0 SSW 10 - 1011.0 - - - - - - - - -
26/06:00pm 29.7 SSW 9 - 1010.8 - - - - - - - - -
26/05:30pm 30.0 SW 10 - 1010.0 - - - - - - - - -
26/05:00pm 29.7 SSW 9 - 1010.0 - - - - - - - - -
26/04:30pm 30.0 S 10 - 1010.0 - - - - - - - - -
26/04:00pm 29.9 S 11 - 1009.9 - - - - - - - - -
26/03:30pm 30.0 SSW 12 - 1009.0 - - - - - - - - -
26/03:00pm 29.8 SSW 12 - 1009.6 - - - - - - - - -
26/02:30pm 30.0 SSW 12 - 1009.0 - - - - - - - - -
26/02:00pm 30.0 SSW 12 - 1009.9 - - - - - - - - -
26/01:30pm 30.0 SSW 11 - 1010.0 - - - - - - - - -
26/01:00pm 29.8 SSW 11 - 1010.6 - - - - - - - - -
26/12:30pm 30.0 SSW 10 - 1011.0 - - - - - - - - -
26/12:00pm 29.9 SSW 10 - 1011.3 - - - - - - - - -
26/11:30am 30.0 SSW 11 - 1011.0 - - - - - - - - -
26/11:00am 29.8 SSW 11 - 1011.9 - - - - - - - - -
26/10:30am 30.0 SSW 11 - 1012.0 - - - - - - - - -
26/10:00am 29.8 SSW 11 - 1012.8 - - - - - - - - -
26/09:30am 30.0 SSW 11 - 1013.0 - - - - - - - - -
26/09:00am 29.5 SSW 10 - 1013.0 - - - - - - - - -
26/08:30am 30.0 SW 9 - 1012.0 - - - - - - - - -
26/08:00am 29.5 SW 10 - 1012.5 - - - - - - - - -
26/07:30am 29.0 SW 10 - 1012.0 - - - - - - - - -
26/07:00am 29.4 SW 10 - 1011.9 - - - - - - - - -
26/06:30am 29.0 SW 10 - 1011.0 - - - - - - - - -
26/06:00am 29.2 WSW 10 - 1011.2 - - - - - - - - -
26/05:30am 29.0 W 10 - 1011.0 - - - - - - - - -
26/05:00am 29.3 W 10 - 1010.9 - - - - - - - - -
26/04:30am 29.0 W 11 - 1010.0 - - - - - - - - -
26/04:00am 29.2 W 11 - 1010.3 - - - - - - - - -
26/03:30am 29.0 W 10 - 1010.0 - - - - - - - - -
26/03:00am 29.5 W 10 - 1010.3 - - - - - - - - -
26/02:30am 30.0 WSW 11 - 1010.0 - - - - - - - - -
26/02:00am 29.5 WSW 9 - 1010.4 - - - - - - - - -
26/01:30am 30.0 WSW 9 - 1010.0 - - - - - - - - -
26/01:00am 29.5 WSW 10 - 1010.5 - - - - - - - - -
26/12:30am 29.0 WSW 11 - 1010.0 - - - - - - - - -
26/12:00am 29.3 WSW 9 - 1011.0 - - - - - - - - -
 
Date/Time
WST
Temp

°C
Wind Pressure Rain
since 9am
mm
Weather Cloud Vis
km
Sea
Height
m
Swell
Dir
 
Speed
knots
Gust
knots
hPa Trend Height
m
Period
s
Dir
25/11:30pm 29.0 WSW 9 - 1011.0 - - - - - - - - -
25/11:00pm 29.3 W 9 - 1011.5 - - - - - - - - -
25/10:30pm 29.0 WSW 9 - 1011.0 - - - - - - - - -
25/10:00pm 29.3 WSW 8 - 1011.7 - - - - - - - - -
25/09:30pm 29.0 WSW 8 - 1012.0 - - - - - - - - -
25/09:00pm 29.3 SW 8 - 1011.9 - - - - - - - - -
25/08:30pm 29.0 SW 9 - 1011.0 - - - - - - - - -
25/08:00pm 29.4 SSW 10 - 1011.4 - - - - - - - - -
25/07:30pm 29.0 SW 9 - 1011.0 - - - - - - - - -
25/07:00pm 29.5 SW 10 - 1010.6 - - - - - - - - -
25/06:30pm 30.0 SW 9 - 1010.0 - - - - - - - - -
25/06:00pm 29.7 SSW 8 - 1010.2 - - - - - - - - -
25/05:30pm 29.0 W 10 - 1010.0 - - - - - - - - -

Other Formats:

Comma delimited format used in spreadsheet applications
http://www.bom.gov.au/fwo/IDW60701/IDW60701.94103.axf

JavaScript Object Notation format (JSON) in row-major order
http://www.bom.gov.au/fwo/IDW60701/IDW60701.94103.json